Sheridan, WY

9:37 AM MST on December 05, 2016 (GMT -0700)
Sheridan County

Weather History for KSHR - December, 2013

Change the Weather History Date:

Monday, December 2, 2013

  Actual Average Record
Temperature  
Mean Temperature 35 °F 25 °F  
Max Temperature 49 °F 38 °F 70 °F (1941)
Min Temperature 20 °F 13 °F -25 °F (1919)
Degree Days  
Heating Degree Days 30 40  
Month to date heating degree days 55 80  
Since 1 July heating degree days 1860 1958  
Cooling Degree Days 0 0  
Month to date cooling degree days 0 0  
Year to date cooling degree days 592 419  
Moisture  
Dew Point 30 °F    
Average Humidity 71    
Maximum Humidity 100    
Minimum Humidity 42    
Precipitation  
Precipitation 0.47 in 0.02 in 0.47 in (2013)
Month to date precipitation 0.47 0.04  
Year to date precipitation 17.36 13.64  
Sea Level Pressure  
Sea Level Pressure 29.59 in    
Wind  
Wind Speed 10 mph (NNW)    
Max Wind Speed 31 mph    
Max Gust Speed 36 mph    
Visibility 6 miles    
Events Fog , Rain , Snow    
T = Trace of Precipitation, MM = Missing Value Source: NWS Daily Summary

Daily Weather History Graph

Daily Weather History Graph

Search for Another Location

Airport or City:

Trip Planner

Search our weather history database for the weather conditions in past years. The results will help you decide how hot, cold, wet, or windy it might be!

Date:

Astronomy

Dec. 02, 2013 Rise Set
Actual Time 7:26 AM MST 4:28 PM MST
Civil Twilight 6:53 AM MST 5:01 PM MST
Nautical Twilight 6:16 AM MST 5:37 PM MST
Astronomical Twilight 5:41 AM MST 6:13 PM MST
Moon 6:53 AM MST (12/2) 4:35 PM MST (12/2)
Length of Visible Light 10h 07m
Length of Day
9h 01m
Waning Crescent, 0% of the Moon is Illuminated
Dec 2
Waning Crescent
Dec 2
New
Dec 9
First Quarter
Dec 17
Full
Dec 25
Last Quarter

Hourly Weather History & Observations

Time (MST) Temp. Windchill Dew Point Humidity Pressure Visibility Wind Dir Wind Speed Gust Speed Precip Events Conditions
12:53 AM 46.9 °F - 28.0 °F 48% 29.64 in 10.0 mi WNW 9.2 mph - N/A   Overcast
1:53 AM 43.0 °F - 27.0 °F 53% 29.61 in 10.0 mi Calm Calm - N/A   Overcast
2:53 AM 41.0 °F 39.0 °F 28.0 °F 60% 29.60 in 10.0 mi Variable 3.5 mph - N/A   Overcast
3:53 AM 43.0 °F 37.7 °F 28.9 °F 58% 29.60 in 10.0 mi NE 9.2 mph - 0.00 in Rain Light Rain
4:53 AM 39.0 °F 35.7 °F 32.0 °F 76% 29.60 in 10.0 mi South 4.6 mph - 0.00 in   Overcast
5:53 AM 39.0 °F 34.8 °F 32.0 °F 76% 29.61 in 10.0 mi NNW 5.8 mph - 0.00 in   Overcast
6:53 AM 36.0 °F 29.0 °F 32.0 °F 86% 29.60 in 10.0 mi North 9.2 mph - N/A   Partly Cloudy
7:22 AM 36.0 °F 29.0 °F 33.1 °F 89% 29.58 in 10.0 mi NNE 9.2 mph - N/A   Mostly Cloudy
7:53 AM 36.0 °F 32.1 °F 33.1 °F 89% 29.62 in 10.0 mi North 4.6 mph - N/A   Overcast
8:53 AM 37.0 °F - 33.1 °F 86% 29.62 in 10.0 mi Calm Calm - N/A   Overcast
9:53 AM 39.0 °F 34.8 °F 34.0 °F 82% 29.62 in 10.0 mi NE 5.8 mph - N/A   Overcast
10:53 AM 39.0 °F 34.0 °F 33.1 °F 79% 29.60 in 10.0 mi East 6.9 mph - N/A   Overcast
11:27 AM 42.1 °F 36.6 °F 33.1 °F 70% 29.56 in 10.0 mi East 9.2 mph - N/A   Overcast
11:53 AM 42.1 °F 36.1 °F 33.1 °F 70% 29.53 in 10.0 mi ESE 10.4 mph - N/A   Overcast
12:53 PM 44.1 °F 38.1 °F 33.1 °F 65% 29.49 in 10.0 mi SE 11.5 mph - N/A   Scattered Clouds
1:53 PM 43.0 °F 39.5 °F 32.0 °F 65% 29.49 in 10.0 mi Variable 5.8 mph - N/A   Partly Cloudy
2:53 PM 45.0 °F 40.6 °F 33.1 °F 63% 29.49 in 10.0 mi NE 8.1 mph - N/A   Scattered Clouds
3:28 PM 37.9 °F 29.6 °F 34.0 °F 86% 29.50 in 10.0 mi North 13.8 mph - N/A   Mostly Cloudy
3:39 PM 37.9 °F 30.5 °F 35.1 °F 89% 29.49 in 10.0 mi North 11.5 mph - N/A   Overcast
3:53 PM 37.0 °F 30.4 °F 35.1 °F 93% 29.52 in 10.0 mi NNW 9.2 mph - N/A   Overcast
4:53 PM 36.0 °F 29.6 °F 34.0 °F 93% 29.53 in 10.0 mi NW 8.1 mph - 0.00 in   Overcast
5:04 PM 36.0 °F 29.6 °F 35.1 °F 97% 29.49 in 10.0 mi NNW 8.1 mph - N/A   Overcast
5:25 PM 36.0 °F 29.0 °F 35.1 °F 97% 29.50 in 10.0 mi North 9.2 mph - N/A   Overcast
5:53 PM 36.0 °F 29.6 °F 35.1 °F 97% 29.55 in 10.0 mi NNW 8.1 mph - N/A   Overcast
6:51 PM 32.0 °F 21.6 °F 30.2 °F 93% 29.53 in 1.8 mi NNW 15.0 mph - 0.05 in Snow Light Snow
6:53 PM 32.0 °F 21.6 °F 30.9 °F 96% 29.60 in 1.5 mi NNW 15.0 mph - 0.06 in Snow Light Snow
7:00 PM 32.0 °F 21.6 °F 30.9 °F 96% 29.53 in 1.0 mi NNW 15.0 mph - 0.03 in Snow Light Snow
7:28 PM 32.0 °F 23.6 °F 30.9 °F 96% 29.55 in 0.8 mi NW 10.4 mph - 0.10 in Snow Light Snow
7:53 PM 32.0 °F 23.6 °F 30.9 °F 96% 29.63 in 0.8 mi WNW 10.4 mph - 0.18 in Snow Light Snow
8:13 PM 32.0 °F 23.6 °F 30.9 °F 96% 29.56 in 1.2 mi WNW 10.4 mph - 0.05 in Snow Light Snow
8:31 PM 32.0 °F 23.0 °F 30.9 °F 96% 29.58 in 0.8 mi West 11.5 mph - 0.10 in Snow Light Snow
8:45 PM 32.0 °F 24.2 °F 30.9 °F 96% 29.57 in 1.0 mi WNW 9.2 mph - 0.13 in Snow Light Snow
8:53 PM 32.0 °F 24.8 °F 30.9 °F 96% 29.63 in 1.2 mi WNW 8.1 mph - 0.15 in Snow Light Snow
9:12 PM 32.0 °F 23.6 °F 30.9 °F 96% 29.57 in 2.5 mi WNW 10.4 mph - 0.03 in Snow Light Snow
9:29 PM 32.0 °F 21.2 °F 30.9 °F 96% 29.57 in 0.8 mi WNW 16.1 mph 21.9 mph 0.06 in Snow Light Snow
9:38 PM 30.9 °F 16.7 °F 28.9 °F 92% 29.58 in 0.5 mi WNW 27.6 mph 34.5 mph 0.07 in Fog , Snow Snow
9:53 PM 28.0 °F 12.8 °F 26.1 °F 92% 29.67 in 0.5 mi NW 27.6 mph 35.7 mph 0.07 in Fog , Snow Snow
10:05 PM 27.0 °F 12.2 °F 25.0 °F 92% 29.60 in 1.0 mi NW 24.2 mph 31.1 mph 0.01 in Snow Light Snow
10:29 PM 25.0 °F 9.9 °F 23.0 °F 92% 29.62 in 0.8 mi NNW 23.0 mph 35.7 mph 0.01 in Snow Light Snow
10:38 PM 25.0 °F 9.9 °F 23.0 °F 92% 29.62 in 1.0 mi NNW 23.0 mph 32.2 mph 0.01 in Snow Light Snow
10:53 PM 24.1 °F 9.0 °F 21.9 °F 91% 29.71 in 1.0 mi NNW 21.9 mph - 0.01 in Snow Light Snow
11:14 PM 24.1 °F 8.7 °F 21.0 °F 88% 29.62 in 2.0 mi NNW 23.0 mph - 0.00 in Snow Light Snow
11:26 PM 23.0 °F 6.9 °F 21.0 °F 92% 29.63 in 1.5 mi NW 24.2 mph - 0.00 in Snow Light Snow
11:42 PM 23.0 °F 7.6 °F 21.0 °F 92% 29.64 in 0.8 mi NW 21.9 mph - 0.00 in Snow Light Snow
11:46 PM 21.9 °F 3.9 °F 19.9 °F 92% 29.64 in 0.5 mi NW 29.9 mph 34.5 mph 0.00 in Fog , Snow Snow
11:53 PM 21.0 °F 3.0 °F 19.0 °F 92% 29.73 in 0.5 mi NW 28.8 mph 34.5 mph 0.00 in Fog , Snow Snow